Location: New Greens
(51.7702°N, 0.3379°W)
Time: 21:25:48
(UTC+00:00)

Envisat - Pass Details

Date: 31 January 2019
Orbit: 764 x 766 km, 98.2° (Epoch: 15 February)

Event Time Altitude Azimuth Distance (km) Brightness Sun altitude
Rises 17:55:01 0° 147° (SSE) 3,224 6.0 -10.5°
Reaches altitude 10° 17:57:22 10° 142° (SE) 2,301 5.2 -10.9°
Maximum altitude 18:02:15 50° 68° (ENE) 973 3.2 -11.6°
Drops below altitude 10° 18:07:09 10° 354° (N) 2,316 5.4 -12.4°
Sets 18:09:31 0° 349° (N) 3,246 6.2 -12.7°
